Other Public Products
Issued by NWS Grand Forks, ND

Home | Current Version | Previous Version | Text Only | Print | Product List | Glossary Off
Versions: 1 2 3 4 5 6 7 8 9 10 11 12 13 14 15 16 17 18 19 20 21 22 23 24 25 26 27 28 29 30 31 32 33 34 35 36 37 38 39 40 41 42 43 44 45 46 47 48 49 50

000
FPUS83 KFGF 291031
OPUFGF
PRAIRIE TO PINES WEATHER ROUNDUP
NATIONAL WEATHER SERVICE EASTERN NORTH DAKOTA/GRAND FORKS ND
500 AM CDT SUN MAR 29 2015

 **SATELLITE DATA USED TO AUGMENT SKY COVER AT AUTOMATED STATIONS**
 *****  WEATHER ACROSS EASTERN NORTH DAKOTA  *****

CITY           SKY/WX    TMP DP  RH WIND       PRES   REMARKS
GRAND FORKS    CLOUDY    41  37  87 N37G45    29.48R
GRAND FORKS AF CLOUDY    43  39  87 N25G33    29.48R
GRAND CITY NWS   N/A     39 N/A N/A N29         N/A
BUXTON           N/A     45  45  99 NW25        N/A
DEVILS LAKE    CLOUDY    39  36  87 N22G29    29.60R
FARGO          CLOUDY    42  38  85 S18       29.46F
WAHPETON ARPT  CLOUDY    41  36  81 SW10      29.50F
$$

 *****  WEATHER ACROSS CENTRAL AND WESTERN NORTH DAKOTA  *****

CITY           SKY/WX    TMP DP  RH WIND       PRES   REMARKS
JAMESTOWN      LGT RAIN  43  40  89 NW30G39   29.57R
BISMARCK       LGT RAIN  41  37  86 NW31G43   29.73R
MINOT          PTCLDY    38  32  79 NW25G33   29.78R
MINOT AFB      PTCLDY    38  37  98 NW25      29.77R
GARRISON         N/A     40  36  86 N30G43    29.76R
WILLISTON      CLEAR     38  34  85 NW21G29   29.96R
DICKINSON      CLOUDY    38  33  82 NW28G39   29.90R
HETTINGER      CLOUDY    39  37  92 NW29G41   29.91R
$$

 *****  OTHER OBSERVATIONS NORTHEAST NORTH DAKOTA  *****

CITY           SKY/WX    TMP DP  RH WIND       PRES   REMARKS
WALHALLA         N/A     37  37 100 NW29G35   29.57R
LANGDON        NOT AVBL
CAVALIER       CLOUDY    37  34  87 N23G36    29.54R
GRAFTON        NOT AVBL
CANDO          CLOUDY    37  36  93 N25G33    29.64R
FORT TOTTEN      N/A     38  37  95 NW14      29.95
ROLLA          CLOUDY    36  36 100 N25G36    29.68R
RUGBY            N/A     37  36  93 NW21G31   29.71R
 ***** THE ABOVE OBSERVATIONS ARE NON NWS ARE NOT QUALITY
        CONTROLLED AND MAY MIS-REPORT RAIN FOR SNOW...
$$

 *****  OTHER OBSERVATIONS SOUTHEAST NORTH DAKOTA *****

CITY           SKY/WX    TMP DP  RH WIND       PRES   REMARKS
COOPERSTOWN    NOT AVBL
VALLEY CITY    LGT RAIN  45  45 100 N21G33    29.52R
OAKES            N/A     43  41  93 W16       29.55R
GWINNER        CLOUDY    46  45  93 W20G26      N/A
SHEYENNE NWR     N/A     47  43  87 W17       29.95
BUFFALO        NOT AVBL
WYNDMERE         N/A     45  43  93 W12         N/A
 ***** THE ABOVE OBSERVATIONS ARE NON NWS ARE NOT QUALITY
       CONTROLLED AND MAY MIS-REPORT RAIN FOR SNOW...
$$

  *****  WEATHER ACROSS NORTHERN MINNESOTA  *****

CITY           SKY/WX    TMP DP  RH WIND       PRES   REMARKS
FLAG ISLAND    RAIN      36  36 100 S3        29.40R
WARROAD        LGT RAIN  37  36  93 SW8       29.40F
ROSEAU         LGT RAIN  39  36  87 SW9       29.41S
HALLOCK        DRIZZLE   39  37  93 N26G33    29.46R
THF RVR FALLS  CLOUDY    39  37  93 SW15      29.43R
HALSTAD          N/A     42  39  91 SW14G25     N/A
FOSSTON        RAIN      36  34  93 SW20G26   29.44F
BAUDETTE       LGT RAIN  37  34  89 S12       29.40F
WASKISH        LGT RAIN  37  34  87 S9        29.41F
CROOKSTON      MIX PCPN  41  39  93 NW20      29.45R
$$
  *****  WEATHER ACROSS CENTRAL AND WEST MINNESOTA  *****

CITY           SKY/WX    TMP DP  RH WIND       PRES   REMARKS
BEMIDJI        LGT RAIN  35  33  93 S13G20    29.44F
PARK RAPIDS    LGT RAIN  37  33  85 S15       29.49F FOG
WADENA         CLOUDY    36  32  87 S18       29.51F
DETROIT LAKES  DRIZZLE   37  36  93 S14G21    29.48F
MOORHEAD       LGT RAIN  39  39 100 S13       29.48S
FERGUS FALLS   MIX PCPN  37  34  87 S14       29.53F
ELBOW LAKE     CLOUDY    37  34  87 S10       29.53F
MORRIS MN      CLOUDY    39  34  81 S14       29.54F
STAPLES        CLOUDY    36  30  80 S16G24    29.54F
WHEATON        CLOUDY    43  37  81 SW12      29.55F
$$
  *****  WEATHER ELSEWHERE ACROSS MINNESOTA  *****

CITY           SKY/WX    TMP DP  RH WIND       PRES   REMARKS
DULUTH         CLOUDY    35  19  52 S20G32    29.61F WCI  24
INTRNTL FALLS  RAIN      35  31  85 S7        29.43F FOG
ELY            CLOUDY    36  19  51 SW16G25   29.52F
CLOQUET        CLOUDY    36  19  51 S17G24    29.59F
BRAINERD       CLOUDY    35  30  82 S17G28    29.57F WCI  25
HIBBING        MOCLDY    34  19  54 S12G20    29.55F
ALEXANDRIA     CLOUDY    37  31  78 S20G26    29.56F
SAINT CLOUD    CLOUDY    35  30  82 S20G26    29.64F WCI  24
MINNEAPOLIS    MIX PCPN  35  29  78 S21G33    29.74F WCI  24
$$

  *****  WEATHER ACROSS SOUTH DAKOTA  *****

CITY           SKY/WX    TMP DP  RH WIND       PRES   REMARKS
SIOUX FALLS    PTCLDY    43  34  70 W6        29.68R
BROOKINGS      NOT AVBL
WATERTOWN      CLEAR     44  36  73 W17       29.61F
HURON          CLEAR     45  37  73 W15       29.68S
SISSETON         N/A     49  40  71 W20       29.53F
ABERDEEN       CLEAR     46  38  73 W17       29.61S
MITCHELL       CLEAR     50  39  66 W17       29.72R
PIERRE         CLOUDY    51  35  54 W40G59    29.76S
MOBRIDGE       LGT RAIN  46  40  79 NW23G38   29.68R
RAPID CITY     PTCLDY    46  31  55 NW49G63   29.94R
$$

  *****  SOME WEATHER IN NEARBY STATES *****

CITY           SKY/WX    TMP DP  RH WIND       PRES   REMARKS
GLASGOW MT     CLEAR     36  33  89 W6        30.06S
GREAT FALLS MT CLEAR     39  28  64 SW14      30.17R
CHEYENNE WY    CLEAR     47  19  33 NW24G37   30.11R
SCOTTSBLUFF NE CLEAR     47  17  30 NW25G33   30.07S
OMAHA NE       CLOUDY    43  34  70 S6        29.91R
DES MOINES IA  LGT RAIN  38  31  76 S20       29.87F
DAVENPORT IA   CLEAR     32  17  54 S20G30    30.06F WCI  20
CHICAGO IL     MOCLDY    27  15  61 S9        30.15F WCI  18
EAU CLAIRE WI  PTCLDY    34  16  47 S10G23    29.84F
LA CROSSE WI   MOCLDY    36  18  48 S16G25    29.94F
$$

  *****  SOME NATIONAL WEATHER *****

CITY           SKY/WX    TMP DP  RH WIND       PRES   REMARKS
LA GUARDIA NY  MOCLDY    28   6  39 NW13      30.19R WCI  17
RALEIGH NC     CLEAR     26  13  57 CALM      30.35R
ATLANTA GA     CLEAR     34  16  47 NW5       30.32R
NEW ORLEANS LA MOCLDY    59  52  77 E7        30.22R
OKLAHOMA CITY  CLEAR     53  44  71 SE16      29.92F
ALBUQUERQUE NM CLEAR     50  14  23 SE7       30.17F
SALT LAKE CITY CLEAR     42  28  57 W5        30.27F
LOS ANGELES CA FOG       57  57 100 CALM      30.03F VSB 1/4
BOISE ID       CLEAR     41  29  62 SE8       30.31F
SEATTLE WA     CLOUDY    50  43  77 SE5       30.31F
$$

*** WEATHER ACROSS MANITOBA...SASKATCHEWAN AND ONTARIO ***
                ***ONTARIO***

CITY           SKY/WX    TMP DP  RH WIND       PRES   REMARKS
GERALDTON      PTCLDY    30  18  59 S14G23    29.61F WCI  20
THUNDER BAY    CLOUDY    36  19  51 S10       29.63F
SIOUX LOOKOUT  LGT SNOW  32  30  93 S7        29.42F VSB 1
TORONTO        CLEAR     18   9  68 SW5       30.25S WCI  11
BIG TROUT LK   LGT SNOW  32  32 100 W5        29.35F
PICKLE LAKE    NOT AVBL
DRYDEN         LGT SNOW  32  32 100 SW12G18   29.39F WCI  23
KENORA         LGT SNOW  34  32  93 SW12      29.38F
$$
                *** MANITOBA***

CITY           SKY/WX    TMP DP  RH WIND       PRES   REMARKS
BRANDON        PTCLDY    36  32  87 NW16      29.70R
DAUPHIN        CLEAR     32  30  93 W12       29.71R WCI  23
ISLAND LAKE    FLURRIES  32  30  93 NW13G18   29.47R WCI  22
PILOT MOUND      N/A     36  32  87 NW21G31     N/A
THE PAS        CLEAR     34  28  80 W12       29.71R
THOMPSON       CLEAR     25  23  93 NW5       29.59R WCI  19
WINNIPEG       CLOUDY    37  32  81 N22G29    29.54R
LYNN LAKE      PTCLDY    27  23  86 W6        29.61R WCI  20
CHURCHILL      FLURRIES   9   5  85 NE26      29.64R WCI -13
GILLAM         FLURRIES  28  25  86 N17       29.52R WCI  16
$$
                ***SASKATCHEWAN***

CITY           SKY/WX    TMP DP  RH WIND       PRES   REMARKS
ESTEVAN        CLEAR     34  32  93 NW18      29.89R WCI  23
KINDERSLEY     PTCLDY    32  30  93 W8        30.01R WCI  25
LLOYDMINSTER   CLEAR     32  30  93 W13       29.94S WCI  22
PRINCE ALBERT  FLURRIES  34  25  69 W6        29.86R
REGINA         CLEAR     34  32  93 W13       29.94R WCI  25


USA.gov is the U.S. government's official web portal to all federal, state and local government web resources and services.